Time,TemperatureF,DewpointF,PressureIn,WindDirection,WindDirectionDegrees,WindSpeedMPH,WindSpeedGustMPH,Humidity,HourlyPrecipIn,Conditions,Clouds,dailyrainin,SoftwareType,DateUTC
2013-06-22 00:01:00,52.9,50.0,29.68,SW,225,5.8,5.8,90,0.00,,,0.00,VWS V14.01,2013-06-22 07:01:00,
2013-06-22 00:06:00,52.9,50.0,29.68,SW,225,4.9,4.9,90,0.00,,,0.00,VWS V14.01,2013-06-22 07:06:00,
2013-06-22 00:11:00,52.9,50.0,29.65,WNW,292,6.3,6.3,90,0.00,,,0.00,VWS V14.01,2013-06-22 07:11:00,
2013-06-22 00:16:00,52.9,50.0,29.65,WSW,248,8.5,8.5,90,0.00,,,0.00,VWS V14.01,2013-06-22 07:16:00,
2013-06-22 00:21:00,52.7,50.2,29.65,WNW,292,3.4,3.4,91,0.00,,,0.00,VWS V14.01,2013-06-22 07:21:00,
2013-06-22 00:26:00,52.7,50.2,29.65,NW,315,7.6,7.6,91,0.00,,,0.00,VWS V14.01,2013-06-22 07:26:00,
2013-06-22 00:31:00,52.7,50.2,29.65,WSW,248,5.4,5.4,91,0.00,,,0.00,VWS V14.01,2013-06-22 07:31:00,
2013-06-22 00:36:00,52.7,50.2,29.65,WSW,248,7.8,7.8,91,0.00,,,0.00,VWS V14.01,2013-06-22 07:36:00,
2013-06-22 00:41:00,52.7,50.2,29.65,SW,225,4.9,4.9,91,0.00,,,0.00,VWS V14.01,2013-06-22 07:41:00,
2013-06-22 00:46:00,52.5,50.0,29.65,West,270,3.6,3.6,91,0.00,,,0.00,VWS V14.01,2013-06-22 07:46:00,
2013-06-22 00:51:00,52.5,50.0,29.65,NW,315,5.4,5.4,91,0.00,,,0.00,VWS V14.01,2013-06-22 07:51:00,
2013-06-22 00:56:00,52.5,50.0,29.65,SSW,202,8.1,8.1,91,0.00,,,0.00,VWS V14.01,2013-06-22 07:56:00,
2013-06-22 01:01:00,52.5,50.0,29.65,NW,315,6.0,6.0,91,0.00,,,0.00,VWS V14.01,2013-06-22 08:01:00,
2013-06-22 01:06:00,52.5,50.0,29.65,NNW,338,4.7,4.7,91,0.00,,,0.00,VWS V14.01,2013-06-22 08:06:00,
2013-06-22 01:11:00,52.5,50.0,29.65,West,270,3.4,3.4,91,0.00,,,0.00,VWS V14.01,2013-06-22 08:11:00,
2013-06-22 01:16:00,52.5,50.0,29.65,West,270,4.9,4.9,91,0.00,,,0.00,VWS V14.01,2013-06-22 08:16:00,
2013-06-22 01:21:00,52.3,49.8,29.65,WSW,248,10.5,10.5,91,0.00,,,0.00,VWS V14.01,2013-06-22 08:21:00,
2013-06-22 01:26:00,52.3,50.1,29.62,WSW,248,10.3,10.3,92,0.00,,,0.00,VWS V14.01,2013-06-22 08:26:00,
2013-06-22 01:31:00,52.2,49.9,29.62,WNW,292,8.5,8.5,92,0.00,,,0.00,VWS V14.01,2013-06-22 08:31:00,
2013-06-22 01:36:00,52.2,49.9,29.62,WSW,248,7.8,7.8,92,0.00,,,0.00,VWS V14.01,2013-06-22 08:36:00,
2013-06-22 01:41:00,52.2,49.9,29.62,West,270,7.8,7.8,92,0.00,,,0.00,VWS V14.01,2013-06-22 08:41:00,
2013-06-22 01:46:00,52.0,49.7,29.62,WSW,248,6.5,6.5,92,0.00,,,0.00,VWS V14.01,2013-06-22 08:46:00,
2013-06-22 01:51:00,52.0,49.7,29.62,WSW,248,5.4,5.4,92,0.00,,,0.00,VWS V14.01,2013-06-22 08:51:00,
2013-06-22 01:56:00,52.0,49.7,29.62,WNW,292,8.5,8.5,92,0.00,,,0.00,VWS V14.01,2013-06-22 08:56:00,
2013-06-22 02:01:00,52.0,50.0,29.62,NNE,22,8.5,8.5,93,0.00,,,0.00,VWS V14.01,2013-06-22 09:01:00,
2013-06-22 02:06:00,51.8,49.8,29.62,WNW,292,4.0,4.0,93,0.00,,,0.00,VWS V14.01,2013-06-22 09:06:00,
2013-06-22 02:11:00,51.8,49.8,29.65,WSW,248,6.3,6.3,93,0.00,,,0.00,VWS V14.01,2013-06-22 09:11:00,
2013-06-22 02:16:00,51.8,49.5,29.65,WNW,292,4.7,4.7,92,0.00,,,0.00,VWS V14.01,2013-06-22 09:16:00,
2013-06-22 02:21:00,51.8,49.5,29.65,West,270,4.0,4.0,92,0.00,,,0.00,VWS V14.01,2013-06-22 09:21:00,
2013-06-22 02:26:00,51.8,49.8,29.65,West,270,6.3,6.3,93,0.00,,,0.00,VWS V14.01,2013-06-22 09:26:00,
2013-06-22 02:31:00,51.8,49.8,29.65,WSW,248,8.1,8.1,93,0.00,,,0.00,VWS V14.01,2013-06-22 09:31:00,
2013-06-22 02:36:00,51.8,49.8,29.65,SW,225,5.6,5.6,93,0.00,,,0.00,VWS V14.01,2013-06-22 09:36:00,
2013-06-22 02:41:00,51.8,49.8,29.65,West,270,4.3,4.3,93,0.00,,,0.00,VWS V14.01,2013-06-22 09:41:00,
2013-06-22 02:46:00,51.6,49.7,29.65,West,270,7.4,7.4,93,0.00,,,0.00,VWS V14.01,2013-06-22 09:46:00,
2013-06-22 02:51:00,51.6,49.7,29.65,West,270,5.6,5.6,93,0.00,,,0.00,VWS V14.01,2013-06-22 09:51:00,
2013-06-22 02:56:00,51.6,49.7,29.62,SSW,202,4.7,4.7,93,0.00,,,0.00,VWS V14.01,2013-06-22 09:56:00,
2013-06-22 03:01:00,51.6,49.7,29.62,West,270,4.9,4.9,93,0.00,,,0.00,VWS V14.01,2013-06-22 10:01:00,
2013-06-22 03:06:00,51.6,49.7,29.62,WSW,248,6.5,6.5,93,0.00,,,0.00,VWS V14.01,2013-06-22 10:06:00,
2013-06-22 03:11:00,51.6,49.7,29.65,WSW,248,8.1,8.1,93,0.00,,,0.00,VWS V14.01,2013-06-22 10:11:00,
2013-06-22 03:16:00,51.6,49.7,29.65,WSW,248,4.0,4.0,93,0.00,,,0.00,VWS V14.01,2013-06-22 10:16:00,
2013-06-22 03:21:00,51.6,49.7,29.65,West,270,4.7,4.7,93,0.00,,,0.00,VWS V14.01,2013-06-22 10:21:00,
2013-06-22 03:26:00,51.6,49.7,29.62,WNW,292,5.4,5.4,93,0.00,,,0.00,VWS V14.01,2013-06-22 10:26:00,
2013-06-22 03:30:00,51.4,49.5,29.62,WSW,248,4.3,4.3,93,0.00,,,0.00,VWS V14.01,2013-06-22 10:30:00,
2013-06-22 03:35:00,51.6,49.7,29.62,West,270,7.8,7.8,93,0.00,,,0.00,VWS V14.01,2013-06-22 10:35:00,
2013-06-22 03:40:00,51.6,50.0,29.65,WNW,292,4.0,4.0,94,0.00,,,0.00,VWS V14.01,2013-06-22 10:40:00,
2013-06-22 03:45:00,51.6,50.0,29.65,West,270,5.8,5.8,94,0.00,,,0.00,VWS V14.01,2013-06-22 10:45:00,
2013-06-22 03:50:00,51.6,50.0,29.65,WSW,248,7.6,7.6,94,0.00,,,0.00,VWS V14.01,2013-06-22 10:50:00,
2013-06-22 03:55:00,51.6,50.0,29.65,WSW,248,4.0,4.0,94,0.00,,,0.00,VWS V14.01,2013-06-22 10:55:00,
2013-06-22 04:00:00,51.6,50.0,29.65,West,270,7.2,7.2,94,0.00,,,0.00,VWS V14.01,2013-06-22 11:00:00,
2013-06-22 04:05:00,51.6,50.0,29.65,WSW,248,6.0,6.0,94,0.00,,,0.00,VWS V14.01,2013-06-22 11:05:00,
2013-06-22 04:10:00,51.6,49.7,29.62,West,270,6.3,6.3,93,0.00,,,0.00,VWS V14.01,2013-06-22 11:10:00,
2013-06-22 04:15:00,51.6,49.7,29.62,WSW,248,5.8,5.8,93,0.00,,,0.00,VWS V14.01,2013-06-22 11:15:00,
2013-06-22 04:20:00,51.6,49.7,29.62,WSW,248,5.4,5.4,93,0.00,,,0.00,VWS V14.01,2013-06-22 11:20:00,
2013-06-22 04:25:00,51.6,49.7,29.62,West,270,6.0,6.0,93,0.00,,,0.00,VWS V14.01,2013-06-22 11:25:00,
2013-06-22 04:30:00,51.6,49.7,29.62,WSW,248,7.6,7.6,93,0.00,,,0.00,VWS V14.01,2013-06-22 11:30:00,
2013-06-22 04:35:00,51.6,49.7,29.62,WNW,292,6.5,6.5,93,0.00,,,0.00,VWS V14.01,2013-06-22 11:35:00,
2013-06-22 04:40:00,51.4,49.5,29.62,SW,225,5.8,5.8,93,0.00,,,0.00,VWS V14.01,2013-06-22 11:40:00,
2013-06-22 04:45:00,51.4,49.5,29.62,West,270,5.8,5.8,93,0.00,,,0.00,VWS V14.01,2013-06-22 11:45:00,
2013-06-22 04:50:00,51.6,49.7,29.62,West,270,4.0,4.0,93,0.00,,,0.00,VWS V14.01,2013-06-22 11:50:00,
2013-06-22 04:55:00,51.6,49.7,29.62,WSW,248,6.9,6.9,93,0.00,,,0.00,VWS V14.01,2013-06-22 11:55:00,
2013-06-22 05:00:00,51.6,49.7,29.62,West,270,7.6,7.6,93,0.00,,,0.00,VWS V14.01,2013-06-22 12:00:00,
2013-06-22 05:05:00,51.6,49.7,29.62,WSW,248,5.6,5.6,93,0.00,,,0.00,VWS V14.01,2013-06-22 12:05:00,
2013-06-22 05:10:00,51.4,49.5,29.62,WSW,248,7.4,7.4,93,0.00,,,0.00,VWS V14.01,2013-06-22 12:10:00,
2013-06-22 05:15:00,51.4,49.5,29.62,WSW,248,5.8,5.8,93,0.00,,,0.00,VWS V14.01,2013-06-22 12:15:00,
2013-06-22 05:20:00,51.3,49.3,29.62,WSW,248,5.6,5.6,93,0.00,,,0.00,VWS V14.01,2013-06-22 12:20:00,
2013-06-22 05:25:00,51.3,49.3,29.65,WNW,292,5.6,5.6,93,0.00,,,0.00,VWS V14.01,2013-06-22 12:25:00,
2013-06-22 05:30:00,51.3,49.3,29.65,West,270,5.8,5.8,93,0.00,,,0.00,VWS V14.01,2013-06-22 12:30:00,
2013-06-22 05:35:00,51.3,49.3,29.65,WNW,292,6.3,6.3,93,0.00,,,0.00,VWS V14.01,2013-06-22 12:35:00,
2013-06-22 05:40:00,51.3,49.3,29.62,West,270,6.5,6.5,93,0.00,,,0.00,VWS V14.01,2013-06-22 12:40:00,
2013-06-22 05:45:00,51.3,49.3,29.62,West,270,8.5,8.5,93,0.00,,,0.00,VWS V14.01,2013-06-22 12:45:00,
2013-06-22 05:50:00,51.3,49.3,29.62,WSW,248,7.2,7.2,93,0.00,,,0.00,VWS V14.01,2013-06-22 12:50:00,
2013-06-22 05:55:00,51.3,49.3,29.62,West,270,7.8,7.8,93,0.00,,,0.00,VWS V14.01,2013-06-22 12:55:00,
2013-06-22 06:00:00,51.3,49.3,29.62,WSW,248,6.0,6.0,93,0.00,,,0.00,VWS V14.01,2013-06-22 13:00:00,
2013-06-22 06:05:00,51.6,49.7,29.62,WSW,248,4.9,4.9,93,0.00,,,0.00,VWS V14.01,2013-06-22 13:05:00,
2013-06-22 06:10:00,52.2,49.9,29.65,West,270,4.3,4.3,92,0.00,,,0.00,VWS V14.01,2013-06-22 13:10:00,
2013-06-22 06:15:00,52.5,50.3,29.65,WSW,248,3.4,3.4,92,0.00,,,0.00,VWS V14.01,2013-06-22 13:15:00,
2013-06-22 06:20:00,53.1,50.8,29.65,WSW,248,1.3,1.3,92,0.00,,,0.00,VWS V14.01,2013-06-22 13:20:00,
2013-06-22 06:25:00,53.4,50.9,29.65,WSW,248,2.9,2.9,91,0.00,,,0.00,VWS V14.01,2013-06-22 13:25:00,
2013-06-22 06:30:00,53.8,51.2,29.65,WNW,292,1.3,1.3,91,0.00,,,0.00,VWS V14.01,2013-06-22 13:30:00,
2013-06-22 06:35:00,54.3,51.8,29.65,WNW,292,2.5,2.5,91,0.00,,,0.00,VWS V14.01,2013-06-22 13:35:00,
2013-06-22 06:40:00,54.1,51.3,29.65,WSW,248,5.4,5.4,90,0.00,,,0.00,VWS V14.01,2013-06-22 13:40:00,
2013-06-22 06:45:00,53.8,50.6,29.65,WSW,248,4.3,4.3,89,0.00,,,0.00,VWS V14.01,2013-06-22 13:45:00,
2013-06-22 06:50:00,53.8,50.3,29.65,WSW,248,3.4,3.4,88,0.00,,,0.00,VWS V14.01,2013-06-22 13:50:00,
2013-06-22 06:55:00,53.8,50.0,29.65,WSW,248,3.1,3.1,87,0.00,,,0.00,VWS V14.01,2013-06-22 13:55:00,
2013-06-22 07:00:00,54.0,49.9,29.65,WSW,248,5.8,5.8,86,0.00,,,0.00,VWS V14.01,2013-06-22 14:00:00,
2013-06-22 07:05:00,54.1,50.0,29.65,WSW,248,3.6,3.6,86,0.00,,,0.00,VWS V14.01,2013-06-22 14:05:00,
2013-06-22 07:10:00,54.5,50.4,29.65,West,270,4.0,4.0,86,0.00,,,0.00,VWS V14.01,2013-06-22 14:10:00,
2013-06-22 07:15:00,54.5,50.4,29.65,WNW,292,4.5,4.5,86,0.00,,,0.00,VWS V14.01,2013-06-22 14:15:00,
2013-06-22 07:20:00,54.9,50.4,29.65,West,270,2.9,2.9,85,0.00,,,0.00,VWS V14.01,2013-06-22 14:20:00,
2013-06-22 07:25:00,55.2,50.8,29.65,WNW,292,3.1,3.1,85,0.00,,,0.00,VWS V14.01,2013-06-22 14:25:00,
2013-06-22 07:30:00,55.6,51.2,29.65,WNW,292,4.3,4.3,85,0.00,,,0.00,VWS V14.01,2013-06-22 14:30:00,
2013-06-22 07:35:00,55.9,51.5,29.65,WSW,248,1.3,1.3,85,0.00,,,0.00,VWS V14.01,2013-06-22 14:35:00,
2013-06-22 07:40:00,56.7,51.9,29.65,NW,315,1.6,1.6,84,0.00,,,0.00,VWS V14.01,2013-06-22 14:40:00,
2013-06-22 07:45:00,57.0,52.2,29.65,WSW,248,2.9,2.9,84,0.00,,,0.00,VWS V14.01,2013-06-22 14:45:00,
2013-06-22 07:50:00,57.2,52.1,29.65,West,270,2.7,2.7,83,0.00,,,0.00,VWS V14.01,2013-06-22 14:50:00,
2013-06-22 07:55:00,57.6,52.4,29.65,WNW,292,4.3,4.3,83,0.00,,,0.00,VWS V14.01,2013-06-22 14:55:00,
2013-06-22 08:00:00,57.9,52.5,29.65,WSW,248,3.4,3.4,82,0.00,,,0.00,VWS V14.01,2013-06-22 15:00:00,
2013-06-22 08:05:00,58.3,52.5,29.65,West,270,2.7,2.7,81,0.00,,,0.00,VWS V14.01,2013-06-22 15:05:00,
2013-06-22 08:10:00,58.5,52.7,29.62,WNW,292,4.9,4.9,81,0.00,,,0.00,VWS V14.01,2013-06-22 15:10:00,
2013-06-22 08:15:00,58.8,52.7,29.62,West,270,4.9,4.9,80,0.00,,,0.00,VWS V14.01,2013-06-22 15:15:00,
2013-06-22 08:20:00,59.5,53.0,29.62,West,270,1.3,1.3,79,0.00,,,0.00,VWS V14.01,2013-06-22 15:20:00,
2013-06-22 08:25:00,59.7,53.2,29.62,SSW,202,1.6,1.6,79,0.00,,,0.00,VWS V14.01,2013-06-22 15:25:00,
2013-06-22 08:30:00,60.6,53.4,29.62,WSW,248,1.1,1.1,77,0.00,,,0.00,VWS V14.01,2013-06-22 15:30:00,
2013-06-22 08:35:00,61.3,53.4,29.62,WNW,292,2.2,2.2,75,0.00,,,0.00,VWS V14.01,2013-06-22 15:35:00,
2013-06-22 08:40:00,62.2,54.2,29.62,NNE,22,0.0,0.0,75,0.00,,,0.00,VWS V14.01,2013-06-22 15:40:00,
2013-06-22 08:45:00,62.8,53.2,29.62,NNW,338,2.5,2.5,71,0.00,,,0.00,VWS V14.01,2013-06-22 15:45:00,
2013-06-22 08:50:00,62.2,52.0,29.62,WNW,292,4.0,4.0,69,0.00,,,0.00,VWS V14.01,2013-06-22 15:50:00,
2013-06-22 08:55:00,62.1,51.4,29.62,NNW,338,2.7,2.7,68,0.00,,,0.00,VWS V14.01,2013-06-22 15:55:00,
2013-06-22 09:00:00,62.1,51.4,29.62,NNW,338,2.7,2.7,68,0.00,,,0.00,VWS V14.01,2013-06-22 16:00:00,
2013-06-22 09:05:00,62.1,51.4,29.62,NNW,338,2.7,2.7,68,0.00,,,0.00,VWS V14.01,2013-06-22 16:05:00,
2013-06-22 09:10:00,62.1,51.4,29.62,NNW,338,2.7,2.7,68,0.00,,,0.00,VWS V14.01,2013-06-22 16:10:00,
2013-06-22 09:15:00,62.1,51.4,29.62,NNW,338,2.7,2.7,68,0.00,,,0.00,VWS V14.01,2013-06-22 16:15:00,
2013-06-22 09:20:00,62.1,51.4,29.62,NNW,338,2.7,2.7,68,0.00,,,0.00,VWS V14.01,2013-06-22 16:20:00,
2013-06-22 09:25:00,65.3,53.2,29.62,NNW,338,3.8,3.8,65,0.00,,,0.00,VWS V14.01,2013-06-22 16:25:00,
2013-06-22 09:30:00,65.7,54.0,29.62,West,270,2.7,2.7,66,0.00,,,0.00,VWS V14.01,2013-06-22 16:30:00,
2013-06-22 09:35:00,66.2,53.2,29.62,WNW,292,4.0,4.0,63,0.00,,,0.00,VWS V14.01,2013-06-22 16:35:00,
2013-06-22 09:40:00,66.6,54.4,29.62,SW,225,5.4,5.4,65,0.00,,,0.00,VWS V14.01,2013-06-22 16:40:00,
2013-06-22 09:45:00,66.2,52.8,29.62,WSW,248,5.6,5.6,62,0.00,,,0.00,VWS V14.01,2013-06-22 16:45:00,
2013-06-22 09:50:00,66.2,52.8,29.62,West,270,4.0,4.0,62,0.00,,,0.00,VWS V14.01,2013-06-22 16:50:00,
2013-06-22 09:55:00,66.0,52.6,29.62,West,270,7.2,7.2,62,0.00,,,0.00,VWS V14.01,2013-06-22 16:55:00,
2013-06-22 10:00:00,65.1,50.9,29.62,SW,225,5.8,5.8,60,0.00,,,0.00,VWS V14.01,2013-06-22 17:00:00,
2013-06-22 10:05:00,64.2,49.2,29.62,WSW,248,6.3,6.3,58,0.00,,,0.00,VWS V14.01,2013-06-22 17:05:00,
2013-06-22 10:10:00,63.9,49.3,29.62,WNW,292,5.4,5.4,59,0.00,,,0.00,VWS V14.01,2013-06-22 17:10:00,
2013-06-22 10:15:00,63.9,49.3,29.62,WNW,292,6.3,6.3,59,0.00,,,0.00,VWS V14.01,2013-06-22 17:15:00,
2013-06-22 10:20:00,63.9,48.8,29.62,WNW,292,7.8,7.8,58,0.00,,,0.00,VWS V14.01,2013-06-22 17:20:00,
2013-06-22 10:25:00,63.5,48.9,29.62,WNW,292,8.5,8.5,59,0.00,,,0.00,VWS V14.01,2013-06-22 17:25:00,
2013-06-22 10:30:00,63.7,49.1,29.62,WSW,248,8.7,8.7,59,0.00,,,0.00,VWS V14.01,2013-06-22 17:30:00,
2013-06-22 10:35:00,63.7,48.6,29.62,WSW,248,8.1,8.1,58,0.00,,,0.00,VWS V14.01,2013-06-22 17:35:00,
2013-06-22 10:40:00,63.7,48.6,29.62,WSW,248,10.7,10.7,58,0.00,,,0.00,VWS V14.01,2013-06-22 17:40:00,
2013-06-22 10:45:00,63.9,49.3,29.62,West,270,12.3,12.3,59,0.00,,,0.00,VWS V14.01,2013-06-22 17:45:00,
2013-06-22 10:50:00,63.7,49.1,29.62,West,270,11.0,11.0,59,0.00,,,0.00,VWS V14.01,2013-06-22 17:50:00,
2013-06-22 10:55:00,64.2,49.6,29.62,WNW,292,12.1,12.1,59,0.00,,,0.00,VWS V14.01,2013-06-22 17:55:00,
2013-06-22 11:00:00,64.2,49.6,29.62,SW,225,6.7,6.7,59,0.00,,,0.00,VWS V14.01,2013-06-22 18:00:00,
2013-06-22 11:05:00,64.4,49.8,29.62,WNW,292,6.3,6.3,59,0.00,,,0.00,VWS V14.01,2013-06-22 18:05:00,
2013-06-22 11:10:00,64.6,50.0,29.62,NW,315,7.8,7.8,59,0.00,,,0.00,VWS V14.01,2013-06-22 18:10:00,
2013-06-22 11:15:00,64.2,50.1,29.62,West,270,6.3,6.3,60,0.00,,,0.00,VWS V14.01,2013-06-22 18:15:00,
2013-06-22 11:20:00,63.5,49.4,29.62,West,270,5.6,5.6,60,0.00,,,0.00,VWS V14.01,2013-06-22 18:20:00,
2013-06-22 11:25:00,63.0,49.3,29.62,SSW,202,13.4,13.4,61,0.00,,,0.00,VWS V14.01,2013-06-22 18:25:00,
2013-06-22 11:30:00,63.0,50.2,29.62,WNW,292,12.8,12.8,63,0.00,,,0.00,VWS V14.01,2013-06-22 18:30:00,
2013-06-22 11:35:00,62.4,50.1,29.62,WNW,292,12.8,12.8,64,0.00,,,0.00,VWS V14.01,2013-06-22 18:35:00,
2013-06-22 11:40:00,62.1,49.8,29.62,WSW,248,14.3,14.3,64,0.00,,,0.00,VWS V14.01,2013-06-22 18:40:00,
2013-06-22 11:45:00,62.2,50.3,29.62,SSW,202,12.3,12.3,65,0.00,,,0.00,VWS V14.01,2013-06-22 18:45:00,
2013-06-22 11:50:00,62.2,49.9,29.62,WNW,292,11.0,11.0,64,0.00,,,0.00,VWS V14.01,2013-06-22 18:50:00,
2013-06-22 11:55:00,61.9,49.6,29.62,West,270,10.7,10.7,64,0.00,,,0.00,VWS V14.01,2013-06-22 18:55:00,
2013-06-22 12:00:00,61.9,49.2,29.62,WSW,248,13.2,13.2,63,0.00,,,0.00,VWS V14.01,2013-06-22 19:00:00,
2013-06-22 12:05:00,61.9,49.2,29.62,WSW,248,10.5,10.5,63,0.00,,,0.00,VWS V14.01,2013-06-22 19:05:00,
2013-06-22 12:10:00,61.9,49.2,29.62,WSW,248,16.8,16.8,63,0.00,,,0.00,VWS V14.01,2013-06-22 19:10:00,
2013-06-22 12:15:00,61.9,49.2,29.62,WSW,248,16.8,16.8,63,0.00,,,0.00,VWS V14.01,2013-06-22 19:15:00,
2013-06-22 12:20:00,61.0,49.2,29.62,WSW,248,13.2,13.2,65,0.00,,,0.00,VWS V14.01,2013-06-22 19:20:00,
2013-06-22 12:25:00,61.2,49.3,29.62,West,270,15.4,15.4,65,0.00,,,0.00,VWS V14.01,2013-06-22 19:25:00,
2013-06-22 12:30:00,61.3,49.9,29.62,SSW,202,15.9,15.9,66,0.00,,,0.00,VWS V14.01,2013-06-22 19:30:00,
2013-06-22 12:35:00,61.7,49.8,29.62,WSW,248,16.1,16.1,65,0.00,,,0.00,VWS V14.01,2013-06-22 19:35:00,
2013-06-22 12:40:00,61.7,49.8,29.62,WNW,292,17.2,17.2,65,0.00,,,0.00,VWS V14.01,2013-06-22 19:40:00,
2013-06-22 12:45:00,61.5,49.7,29.62,SSW,202,19.7,19.7,65,0.00,,,0.00,VWS V14.01,2013-06-22 19:45:00,
2013-06-22 12:50:00,61.3,49.5,29.62,WSW,248,12.3,12.3,65,0.00,,,0.00,VWS V14.01,2013-06-22 19:50:00,
2013-06-22 12:55:00,61.3,49.9,29.62,WSW,248,12.8,12.8,66,0.00,,,0.00,VWS V14.01,2013-06-22 19:55:00,
2013-06-22 13:00:00,61.3,49.5,29.62,WNW,292,20.4,20.4,65,0.00,,,0.00,VWS V14.01,2013-06-22 20:00:00,
2013-06-22 13:05:00,61.3,49.5,29.62,WSW,248,15.7,15.7,65,0.00,,,0.00,VWS V14.01,2013-06-22 20:05:00,
2013-06-22 13:10:00,61.2,49.3,29.62,West,270,13.0,13.0,65,0.00,,,0.00,VWS V14.01,2013-06-22 20:10:00,
2013-06-22 13:15:00,61.2,49.3,29.62,WSW,248,14.5,14.5,65,0.00,,,0.00,VWS V14.01,2013-06-22 20:15:00,
2013-06-22 13:20:00,61.0,49.2,29.62,SW,225,13.6,13.6,65,0.00,,,0.00,VWS V14.01,2013-06-22 20:20:00,
2013-06-22 13:25:00,61.0,49.5,29.62,SW,225,15.4,15.4,66,0.00,,,0.00,VWS V14.01,2013-06-22 20:25:00,
2013-06-22 13:30:00,61.7,49.8,29.62,West,270,13.0,13.0,65,0.00,,,0.00,VWS V14.01,2013-06-22 20:30:00,
2013-06-22 13:35:00,61.2,49.7,29.62,WSW,248,19.0,19.0,66,0.00,,,0.00,VWS V14.01,2013-06-22 20:35:00,
2013-06-22 13:40:00,61.3,49.9,29.62,SW,225,9.6,9.6,66,0.00,,,0.00,VWS V14.01,2013-06-22 20:40:00,
2013-06-22 13:45:00,61.0,49.5,29.62,SW,225,21.0,21.0,66,0.00,,,0.00,VWS V14.01,2013-06-22 20:45:00,
2013-06-22 13:50:00,61.2,49.7,29.62,SSW,202,13.2,13.2,66,0.00,,,0.00,VWS V14.01,2013-06-22 20:50:00,
2013-06-22 13:55:00,61.3,49.9,29.62,SW,225,16.3,16.3,66,0.00,,,0.00,VWS V14.01,2013-06-22 20:55:00,
2013-06-22 14:00:00,61.2,50.1,29.62,WSW,248,14.5,14.5,67,0.00,,,0.00,VWS V14.01,2013-06-22 21:00:00,
2013-06-22 14:05:00,61.5,50.1,29.62,West,270,23.9,23.9,66,0.00,,,0.00,VWS V14.01,2013-06-22 21:05:00,
2013-06-22 14:10:00,61.3,49.9,29.62,West,270,17.7,17.7,66,0.00,,,0.00,VWS V14.01,2013-06-22 21:10:00,
2013-06-22 14:15:00,61.3,50.3,29.62,WSW,248,22.4,22.4,67,0.00,,,0.00,VWS V14.01,2013-06-22 21:15:00,
2013-06-22 14:20:00,61.3,50.3,29.62,WSW,248,13.0,13.0,67,0.00,,,0.00,VWS V14.01,2013-06-22 21:20:00,
2013-06-22 14:25:00,61.3,50.3,29.59,WSW,248,19.5,19.5,67,0.00,,,0.00,VWS V14.01,2013-06-22 21:25:00,
2013-06-22 14:30:00,61.5,50.1,29.59,WSW,248,15.2,15.2,66,0.00,,,0.00,VWS V14.01,2013-06-22 21:30:00,
2013-06-22 14:35:00,61.7,49.8,29.59,WSW,248,16.1,16.1,65,0.00,,,0.00,VWS V14.01,2013-06-22 21:35:00,
2013-06-22 14:40:00,61.3,49.9,29.59,WSW,248,22.2,22.2,66,0.00,,,0.00,VWS V14.01,2013-06-22 21:40:00,
2013-06-22 14:45:00,61.3,49.9,29.59,WSW,248,22.2,22.2,66,0.00,,,0.00,VWS V14.01,2013-06-22 21:45:00,
2013-06-22 14:50:00,61.3,49.9,29.59,West,270,24.2,24.2,66,0.00,,,0.00,VWS V14.01,2013-06-22 21:50:00,
2013-06-22 14:55:00,61.3,49.9,29.59,West,270,24.2,24.2,66,0.00,,,0.00,VWS V14.01,2013-06-22 21:55:00,
2013-06-22 14:59:00,61.3,49.9,29.59,West,270,24.2,24.2,66,0.00,,,0.00,VWS V14.01,2013-06-22 21:59:00,
2013-06-22 15:04:00,61.3,49.9,29.59,West,270,24.2,24.2,66,0.00,,,0.00,VWS V14.01,2013-06-22 22:04:00,
2013-06-22 15:09:00,61.3,49.9,29.59,West,270,24.4,24.4,66,0.00,,,0.00,VWS V14.01,2013-06-22 22:09:00,
2013-06-22 15:14:00,60.6,50.0,29.59,WSW,248,15.4,15.4,68,0.00,,,0.00,VWS V14.01,2013-06-22 22:14:00,
2013-06-22 15:19:00,60.6,50.0,29.59,WSW,248,21.9,21.9,68,0.00,,,0.00,VWS V14.01,2013-06-22 22:19:00,
2013-06-22 15:24:00,60.4,49.4,29.59,WSW,248,23.9,23.9,67,0.00,,,0.00,VWS V14.01,2013-06-22 22:24:00,
2013-06-22 15:29:00,60.4,49.4,29.59,WSW,248,17.7,17.7,67,0.00,,,0.00,VWS V14.01,2013-06-22 22:29:00,
2013-06-22 15:34:00,61.0,50.0,29.59,SW,225,20.6,20.6,67,0.00,,,0.00,VWS V14.01,2013-06-22 22:34:00,
2013-06-22 15:39:00,60.6,49.6,29.59,WSW,248,25.1,25.1,67,0.00,,,0.00,VWS V14.01,2013-06-22 22:39:00,
2013-06-22 15:44:00,61.0,49.5,29.59,SW,225,9.8,9.8,66,0.00,,,0.00,VWS V14.01,2013-06-22 22:44:00,
2013-06-22 15:49:00,61.0,49.2,29.59,WSW,248,14.3,14.3,65,0.00,,,0.00,VWS V14.01,2013-06-22 22:49:00,
2013-06-22 15:54:00,61.3,49.1,29.59,WSW,248,13.2,13.2,64,0.00,,,0.00,VWS V14.01,2013-06-22 22:54:00,
2013-06-22 15:59:00,61.9,49.2,29.59,West,270,19.5,19.5,63,0.00,,,0.00,VWS V14.01,2013-06-22 22:59:00,
2013-06-22 16:04:00,61.9,49.2,29.59,WSW,248,17.5,17.5,63,0.00,,,0.00,VWS V14.01,2013-06-22 23:04:00,
2013-06-22 16:09:00,61.9,49.2,29.59,West,270,15.4,15.4,63,0.00,,,0.00,VWS V14.01,2013-06-22 23:09:00,
2013-06-22 16:14:00,61.7,49.4,29.59,SW,225,25.5,25.5,64,0.00,,,0.00,VWS V14.01,2013-06-22 23:14:00,
2013-06-22 16:19:00,61.7,50.2,29.59,WSW,248,23.7,23.7,66,0.00,,,0.00,VWS V14.01,2013-06-22 23:19:00,
2013-06-22 16:24:00,61.7,50.6,29.56,SW,225,14.5,14.5,67,0.00,,,0.00,VWS V14.01,2013-06-22 23:24:00,
2013-06-22 16:29:00,61.7,51.0,29.56,South,180,17.2,17.2,68,0.00,,,0.00,VWS V14.01,2013-06-22 23:29:00,
2013-06-22 16:34:00,61.7,51.4,29.56,West,270,24.2,24.2,69,0.00,,,0.00,VWS V14.01,2013-06-22 23:34:00,
2013-06-22 16:39:00,61.5,51.7,29.56,WSW,248,23.7,23.7,70,0.00,,,0.00,VWS V14.01,2013-06-22 23:39:00,
2013-06-22 16:44:00,61.3,51.9,29.56,SW,225,22.6,22.6,71,0.00,,,0.00,VWS V14.01,2013-06-22 23:44:00,
2013-06-22 16:49:00,61.5,52.0,29.56,SW,225,26.9,26.9,71,0.00,,,0.00,VWS V14.01,2013-06-22 23:49:00,
2013-06-22 16:54:00,61.5,52.0,29.56,WSW,248,15.9,15.9,71,0.00,,,0.00,VWS V14.01,2013-06-22 23:54:00,
2013-06-22 16:59:00,61.5,52.0,29.56,WSW,248,15.9,15.9,71,0.00,,,0.00,VWS V14.01,2013-06-22 23:59:00,
2013-06-22 17:04:00,61.7,52.6,29.56,WSW,248,20.8,20.8,72,0.00,,,0.00,VWS V14.01,2013-06-23 00:04:00,
2013-06-22 17:09:00,61.7,52.6,29.56,WSW,248,20.8,20.8,72,0.00,,,0.00,VWS V14.01,2013-06-23 00:09:00,
2013-06-22 17:14:00,61.7,52.6,29.56,West,270,12.8,12.8,72,0.00,,,0.00,VWS V14.01,2013-06-23 00:14:00,
2013-06-22 17:19:00,61.5,52.8,29.56,SSW,202,24.6,24.6,73,0.00,,,0.00,VWS V14.01,2013-06-23 00:19:00,
2013-06-22 17:24:00,61.3,52.6,29.59,WSW,248,14.8,14.8,73,0.00,,,0.00,VWS V14.01,2013-06-23 00:24:00,
2013-06-22 17:29:00,61.7,53.0,29.59,NNW,338,23.0,23.0,73,0.00,,,0.00,VWS V14.01,2013-06-23 00:29:00,
2013-06-22 17:34:00,61.7,53.0,29.59,SW,225,19.9,19.9,73,0.00,,,0.00,VWS V14.01,2013-06-23 00:34:00,
2013-06-22 17:39:00,61.9,53.1,29.56,SW,225,17.5,17.5,73,0.00,,,0.00,VWS V14.01,2013-06-23 00:39:00,
2013-06-22 17:44:00,61.9,53.1,29.56,West,270,17.5,17.5,73,0.00,,,0.00,VWS V14.01,2013-06-23 00:44:00,
2013-06-22 17:49:00,61.9,53.1,29.56,WSW,248,17.2,17.2,73,0.00,,,0.00,VWS V14.01,2013-06-23 00:49:00,
2013-06-22 17:54:00,61.7,53.0,29.56,West,270,19.0,19.0,73,0.00,,,0.00,VWS V14.01,2013-06-23 00:54:00,
2013-06-22 17:59:00,61.7,53.0,29.56,WSW,248,20.4,20.4,73,0.00,,,0.00,VWS V14.01,2013-06-23 00:59:00,
2013-06-22 18:04:00,61.3,53.0,29.56,SW,225,12.1,12.1,74,0.00,,,0.00,VWS V14.01,2013-06-23 01:04:00,
2013-06-22 18:09:00,61.3,53.0,29.56,SW,225,8.7,8.7,74,0.00,,,0.00,VWS V14.01,2013-06-23 01:09:00,
2013-06-22 18:14:00,61.0,53.0,29.56,WSW,248,14.5,14.5,75,0.00,,,0.00,VWS V14.01,2013-06-23 01:14:00,
2013-06-22 18:19:00,60.8,53.2,29.56,WSW,248,7.4,7.4,76,0.00,,,0.00,VWS V14.01,2013-06-23 01:19:00,
2013-06-22 18:24:00,60.8,53.2,29.56,WSW,248,17.5,17.5,76,0.00,,,0.00,VWS V14.01,2013-06-23 01:24:00,
2013-06-22 18:29:00,61.2,53.2,29.56,WSW,248,12.1,12.1,75,0.00,,,0.00,VWS V14.01,2013-06-23 01:29:00,
2013-06-22 18:34:00,61.0,53.0,29.56,SSW,202,12.8,12.8,75,0.00,,,0.00,VWS V14.01,2013-06-23 01:34:00,
2013-06-22 18:39:00,60.8,52.8,29.56,WSW,248,19.5,19.5,75,0.00,,,0.00,VWS V14.01,2013-06-23 01:39:00,
2013-06-22 18:44:00,60.8,52.8,29.56,WSW,248,16.1,16.1,75,0.00,,,0.00,VWS V14.01,2013-06-23 01:44:00,
2013-06-22 18:49:00,60.8,52.5,29.56,WSW,248,12.3,12.3,74,0.00,,,0.00,VWS V14.01,2013-06-23 01:49:00,
2013-06-22 18:54:00,60.6,52.7,29.56,SW,225,16.3,16.3,75,0.00,,,0.00,VWS V14.01,2013-06-23 01:54:00,
2013-06-22 18:59:00,60.4,52.5,29.56,WSW,248,17.5,17.5,75,0.00,,,0.00,VWS V14.01,2013-06-23 01:59:00,
2013-06-22 19:04:00,60.1,52.5,29.56,SW,225,28.6,28.6,76,0.00,,,0.00,VWS V14.01,2013-06-23 02:04:00,
2013-06-22 19:09:00,59.5,52.7,29.56,SW,225,19.7,19.7,78,0.00,,,0.00,VWS V14.01,2013-06-23 02:09:00,
2013-06-22 19:14:00,59.5,53.0,29.56,WSW,248,22.4,22.4,79,0.00,,,0.00,VWS V14.01,2013-06-23 02:14:00,
2013-06-22 19:19:00,59.4,52.9,29.56,WNW,292,19.9,19.9,79,0.00,,,0.00,VWS V14.01,2013-06-23 02:19:00,
2013-06-22 19:24:00,59.2,52.7,29.56,WSW,248,13.0,13.0,79,0.00,,,0.00,VWS V14.01,2013-06-23 02:24:00,
2013-06-22 19:29:00,59.0,52.8,29.56,North,0,15.4,15.4,80,0.00,,,0.00,VWS V14.01,2013-06-23 02:29:00,
2013-06-22 19:34:00,58.8,53.0,29.56,West,270,15.4,15.4,81,0.00,,,0.00,VWS V14.01,2013-06-23 02:34:00,
2013-06-22 19:39:00,58.8,53.0,29.56,WSW,248,19.5,19.5,81,0.00,,,0.00,VWS V14.01,2013-06-23 02:39:00,
2013-06-22 19:44:00,58.5,53.3,29.56,NW,315,22.2,22.2,83,0.00,,,0.00,VWS V14.01,2013-06-23 02:44:00,
2013-06-22 19:49:00,58.3,53.2,29.56,SW,225,10.5,10.5,83,0.00,,,0.00,VWS V14.01,2013-06-23 02:49:00,
2013-06-22 19:54:00,57.9,53.1,29.56,WSW,248,16.8,16.8,84,0.00,,,0.00,VWS V14.01,2013-06-23 02:54:00,
2013-06-22 19:59:00,57.7,53.3,29.56,SW,225,14.5,14.5,85,0.00,,,0.00,VWS V14.01,2013-06-23 02:59:00,
2013-06-22 20:04:00,57.6,53.4,29.56,WSW,248,16.3,16.3,86,0.00,,,0.00,VWS V14.01,2013-06-23 03:04:00,
2013-06-22 20:09:00,57.2,54.0,29.56,SW,225,17.2,17.2,89,0.00,,,0.00,VWS V14.01,2013-06-23 03:09:00,
2013-06-22 20:14:00,57.0,54.4,29.56,SW,225,14.3,14.3,91,0.00,,,0.00,VWS V14.01,2013-06-23 03:14:00,
2013-06-22 20:19:00,56.8,54.5,29.56,WNW,292,15.4,15.4,92,0.00,,,0.00,VWS V14.01,2013-06-23 03:19:00,
2013-06-22 20:24:00,56.7,54.4,29.56,SSW,202,15.4,15.4,92,0.00,,,0.00,VWS V14.01,2013-06-23 03:24:00,
2013-06-22 20:29:00,56.5,54.5,29.56,WSW,248,15.9,15.9,93,0.00,,,0.00,VWS V14.01,2013-06-23 03:29:00,
2013-06-22 20:34:00,56.3,54.3,29.56,WSW,248,17.7,17.7,93,0.00,,,0.00,VWS V14.01,2013-06-23 03:34:00,
2013-06-22 20:39:00,56.3,54.6,29.56,SW,225,17.7,17.7,94,0.00,,,0.00,VWS V14.01,2013-06-23 03:39:00,
2013-06-22 20:44:00,56.1,54.7,29.56,WSW,248,17.5,17.5,95,0.00,,,0.00,VWS V14.01,2013-06-23 03:44:00,
2013-06-22 20:49:00,56.1,54.7,29.56,WSW,248,17.2,17.2,95,0.00,,,0.00,VWS V14.01,2013-06-23 03:49:00,
2013-06-22 20:54:00,55.9,54.8,29.56,WSW,248,14.8,14.8,96,0.00,,,0.00,VWS V14.01,2013-06-23 03:54:00,
2013-06-22 20:59:00,55.6,54.8,29.56,West,270,20.1,20.1,97,0.00,,,0.00,VWS V14.01,2013-06-23 03:59:00,
2013-06-22 21:01:00,55.6,54.8,29.56,SW,225,15.4,15.4,97,0.00,,,0.00,VWS V14.01,2013-06-23 04:01:00,
2013-06-22 21:06:00,55.4,54.8,29.56,WSW,248,18.6,18.6,98,0.00,,,0.00,VWS V14.01,2013-06-23 04:06:00,
2013-06-22 21:11:00,55.2,54.7,29.56,SW,225,25.5,25.5,98,0.00,,,0.00,VWS V14.01,2013-06-23 04:11:00,
2013-06-22 21:16:00,55.2,54.7,29.56,West,270,23.0,23.0,98,0.00,,,0.00,VWS V14.01,2013-06-23 04:16:00,
2013-06-22 21:21:00,55.0,54.5,29.56,SW,225,27.1,27.1,98,0.00,,,0.00,VWS V14.01,2013-06-23 04:21:00,
2013-06-22 21:26:00,54.9,54.3,29.56,WSW,248,20.6,20.6,98,0.00,,,0.00,VWS V14.01,2013-06-23 04:26:00,
2013-06-22 21:31:00,54.9,54.3,29.56,WSW,248,10.1,10.1,98,0.00,,,0.00,VWS V14.01,2013-06-23 04:31:00,
2013-06-22 21:36:00,54.7,54.1,29.56,WSW,248,18.6,18.6,98,0.00,,,0.00,VWS V14.01,2013-06-23 04:36:00,
2013-06-22 21:41:00,54.7,54.1,29.56,WSW,248,17.9,17.9,98,0.00,,,0.00,VWS V14.01,2013-06-23 04:41:00,
2013-06-22 21:46:00,54.7,54.1,29.56,WSW,248,19.5,19.5,98,0.00,,,0.00,VWS V14.01,2013-06-23 04:46:00,
2013-06-22 21:51:00,54.5,54.0,29.56,WSW,248,23.5,23.5,98,0.00,,,0.00,VWS V14.01,2013-06-23 04:51:00,
2013-06-22 21:56:00,54.5,54.0,29.56,WSW,248,23.3,23.3,98,0.00,,,0.00,VWS V14.01,2013-06-23 04:56:00,
2013-06-22 22:01:00,54.5,54.0,29.56,WSW,248,23.3,23.3,98,0.00,,,0.00,VWS V14.01,2013-06-23 05:01:00,
2013-06-22 22:06:00,54.5,54.0,29.56,WSW,248,19.5,19.5,98,0.00,,,0.00,VWS V14.01,2013-06-23 05:06:00,
2013-06-22 22:11:00,54.5,54.0,29.59,WSW,248,16.1,16.1,98,0.00,,,0.00,VWS V14.01,2013-06-23 05:11:00,
2013-06-22 22:16:00,54.5,54.0,29.59,West,270,21.9,21.9,98,0.00,,,0.00,VWS V14.01,2013-06-23 05:16:00,
2013-06-22 22:21:00,54.5,54.0,29.59,WNW,292,10.7,10.7,98,0.00,,,0.00,VWS V14.01,2013-06-23 05:21:00,
2013-06-22 22:26:00,54.5,54.0,29.59,West,270,24.2,24.2,98,0.00,,,0.00,VWS V14.01,2013-06-23 05:26:00,
2013-06-22 22:31:00,54.3,53.8,29.59,WSW,248,19.5,19.5,98,0.00,,,0.00,VWS V14.01,2013-06-23 05:31:00,
2013-06-22 22:36:00,54.3,53.8,29.59,West,270,14.5,14.5,98,0.00,,,0.00,VWS V14.01,2013-06-23 05:36:00,
2013-06-22 22:41:00,54.3,53.8,29.59,WSW,248,6.9,6.9,98,0.00,,,0.00,VWS V14.01,2013-06-23 05:41:00,
2013-06-22 22:46:00,54.3,53.8,29.59,WSW,248,15.4,15.4,98,0.00,,,0.00,VWS V14.01,2013-06-23 05:46:00,
2013-06-22 22:51:00,54.3,53.8,29.59,WSW,248,11.2,11.2,98,0.00,,,0.00,VWS V14.01,2013-06-23 05:51:00,
2013-06-22 22:56:00,54.3,53.8,29.59,West,270,16.8,16.8,98,0.00,,,0.00,VWS V14.01,2013-06-23 05:56:00,
2013-06-22 23:01:00,54.3,53.8,29.59,WSW,248,8.7,8.7,98,0.00,,,0.00,VWS V14.01,2013-06-23 06:01:00,
2013-06-22 23:06:00,54.3,53.8,29.59,WSW,248,12.8,12.8,98,0.00,,,0.00,VWS V14.01,2013-06-23 06:06:00,
2013-06-22 23:11:00,54.3,53.8,29.59,WNW,292,18.6,18.6,98,0.00,,,0.00,VWS V14.01,2013-06-23 06:11:00,
2013-06-22 23:16:00,54.3,53.8,29.59,WSW,248,13.6,13.6,98,0.00,,,0.00,VWS V14.01,2013-06-23 06:16:00,
2013-06-22 23:21:00,54.3,53.8,29.59,WSW,248,11.9,11.9,98,0.00,,,0.00,VWS V14.01,2013-06-23 06:21:00,
2013-06-22 23:26:00,54.1,53.6,29.56,WNW,292,16.3,16.3,98,0.00,,,0.00,VWS V14.01,2013-06-23 06:26:00,
2013-06-22 23:31:00,54.1,53.6,29.56,WSW,248,13.4,13.4,98,0.00,,,0.00,VWS V14.01,2013-06-23 06:31:00,
2013-06-22 23:36:00,54.1,53.6,29.56,WNW,292,19.0,19.0,98,0.00,,,0.00,VWS V14.01,2013-06-23 06:36:00,
2013-06-22 23:41:00,54.1,53.6,29.56,SSW,202,22.2,22.2,98,0.00,,,0.00,VWS V14.01,2013-06-23 06:41:00,
2013-06-22 23:46:00,54.1,53.6,29.56,West,270,22.8,22.8,98,0.00,,,0.00,VWS V14.01,2013-06-23 06:46:00,
2013-06-22 23:51:00,54.0,53.4,29.56,WSW,248,15.4,15.4,98,0.00,,,0.00,VWS V14.01,2013-06-23 06:51:00,
2013-06-22 23:56:00,54.0,53.4,29.56,West,270,23.0,23.0,98,0.00,,,0.00,VWS V14.01,2013-06-23 06:56:00,